Time,TemperatureF,DewpointF,PressureIn,WindDirection,WindDirectionDegrees,WindSpeedMPH,WindSpeedGustMPH,Humidity,HourlyPrecipIn,Conditions,Clouds,dailyrainin,SoftwareType,DateUTC
2013-07-14 00:07:00,77.0,76.4,29.72,ENE,67,0.0,-999.0,98,-99.99,,,0.00,Acu-Link.com,2013-07-14 05:07:00,
2013-07-14 00:23:00,77.0,76.4,29.72,NE,45,0.0,-999.0,98,-99.99,,,0.00,Acu-Link.com,2013-07-14 05:23:00,
2013-07-14 00:38:00,76.5,75.9,29.72,ESE,112,0.0,-999.0,98,-99.99,,,0.00,Acu-Link.com,2013-07-14 05:38:00,
2013-07-14 00:53:00,75.9,75.3,29.71,ESE,112,0.0,-999.0,98,-99.99,,,0.00,Acu-Link.com,2013-07-14 05:53:00,
2013-07-14 01:08:00,75.6,75.0,29.72,SE,135,0.0,-999.0,98,-99.99,,,0.00,Acu-Link.com,2013-07-14 06:08:00,
2013-07-14 01:23:00,75.4,74.8,29.72,NE,45,0.0,-999.0,98,-99.99,,,0.00,Acu-Link.com,2013-07-14 06:23:00,
2013-07-14 01:38:00,75.2,74.6,29.72,SSW,202,0.0,-999.0,98,-99.99,,,0.00,Acu-Link.com,2013-07-14 06:38:00,
2013-07-14 01:54:00,75.0,74.4,29.71,North,0,0.0,-999.0,98,-99.99,,,0.00,Acu-Link.com,2013-07-14 06:54:00,
2013-07-14 02:09:00,75.0,74.4,29.71,ESE,112,0.0,-999.0,98,-99.99,,,0.00,Acu-Link.com,2013-07-14 07:09:00,
2013-07-14 02:24:00,75.0,74.4,29.70,ESE,112,0.0,-999.0,98,-99.99,,,0.00,Acu-Link.com,2013-07-14 07:24:00,
2013-07-14 02:39:00,75.0,74.4,29.70,East,90,2.7,-999.0,98,-99.99,,,0.00,Acu-Link.com,2013-07-14 07:39:00,
2013-07-14 02:54:00,74.8,74.2,29.70,East,90,0.0,-999.0,98,-99.99,,,0.00,Acu-Link.com,2013-07-14 07:54:00,
2013-07-14 03:10:00,74.8,74.2,29.71,East,90,2.7,-999.0,98,-99.99,,,0.00,Acu-Link.com,2013-07-14 08:10:00,
2013-07-14 03:25:00,74.7,74.1,29.71,NE,45,1.7,-999.0,98,-99.99,,,0.00,Acu-Link.com,2013-07-14 08:25:00,
2013-07-14 03:40:00,74.7,74.1,29.70,SE,135,0.0,-999.0,98,-99.99,,,0.00,Acu-Link.com,2013-07-14 08:40:00,
2013-07-14 03:55:00,74.7,74.1,29.70,East,90,2.2,-999.0,98,-99.99,,,0.00,Acu-Link.com,2013-07-14 08:55:00,
2013-07-14 04:11:00,75.0,74.4,29.70,SSE,157,1.7,-999.0,98,-99.99,,,0.00,Acu-Link.com,2013-07-14 09:11:00,
2013-07-14 04:26:00,74.7,74.1,29.70,NE,45,0.0,-999.0,98,-99.99,,,0.00,Acu-Link.com,2013-07-14 09:26:00,
2013-07-14 04:41:00,74.5,73.9,29.70,East,90,1.1,-999.0,98,-99.99,,,0.00,Acu-Link.com,2013-07-14 09:41:00,
2013-07-14 04:56:00,74.3,73.7,29.71,East,90,1.7,-999.0,98,-99.99,,,0.00,Acu-Link.com,2013-07-14 09:56:00,
2013-07-14 05:11:00,73.9,73.3,29.70,East,90,1.1,-999.0,98,-99.99,,,0.00,Acu-Link.com,2013-07-14 10:11:00,
2013-07-14 05:26:00,73.9,73.3,29.71,East,90,1.7,-999.0,98,-99.99,,,0.00,Acu-Link.com,2013-07-14 10:26:00,
2013-07-14 05:41:00,73.8,73.2,29.71,ESE,112,0.0,-999.0,98,-99.99,,,0.00,Acu-Link.com,2013-07-14 10:41:00,
2013-07-14 05:57:00,73.6,73.0,29.71,ENE,67,2.7,-999.0,98,-99.99,,,0.00,Acu-Link.com,2013-07-14 10:57:00,
2013-07-14 06:12:00,73.6,73.0,29.72,ENE,67,2.7,-999.0,98,-99.99,,,0.00,Acu-Link.com,2013-07-14 11:12:00,
2013-07-14 06:27:00,73.4,72.8,29.74,ENE,67,2.7,-999.0,98,-99.99,,,0.00,Acu-Link.com,2013-07-14 11:27:00,
2013-07-14 06:42:00,73.4,72.8,29.73,ESE,112,1.7,-999.0,98,-99.99,,,0.00,Acu-Link.com,2013-07-14 11:42:00,
2013-07-14 06:57:00,73.4,72.8,29.72,ESE,112,0.0,-999.0,98,-99.99,,,0.00,Acu-Link.com,2013-07-14 11:57:00,
2013-07-14 07:12:00,74.1,73.5,29.73,ESE,112,2.2,-999.0,98,-99.99,,,0.00,Acu-Link.com,2013-07-14 12:12:00,
2013-07-14 07:27:00,75.0,74.4,29.73,ENE,67,0.0,-999.0,98,-99.99,,,0.00,Acu-Link.com,2013-07-14 12:27:00,
2013-07-14 07:42:00,77.2,76.6,29.74,ESE,112,2.2,-999.0,98,-99.99,,,0.00,Acu-Link.com,2013-07-14 12:42:00,
2013-07-14 07:57:00,80.4,79.8,29.73,SE,135,2.2,-999.0,98,-99.99,,,0.00,Acu-Link.com,2013-07-14 12:57:00,
2013-07-14 08:12:00,79.3,78.7,29.73,NE,45,3.7,-999.0,98,-99.99,,,0.00,Acu-Link.com,2013-07-14 13:12:00,
2013-07-14 08:28:00,79.0,78.4,29.73,East,90,2.2,-999.0,98,-99.99,,,0.00,Acu-Link.com,2013-07-14 13:28:00,
2013-07-14 08:43:00,79.0,78.4,29.73,NE,45,2.2,-999.0,98,-99.99,,,0.00,Acu-Link.com,2013-07-14 13:43:00,
2013-07-14 08:58:00,79.0,78.4,29.74,NE,45,2.2,-999.0,98,-99.99,,,0.00,Acu-Link.com,2013-07-14 13:58:00,
2013-07-14 09:13:00,79.2,78.6,29.76,NE,45,4.7,-999.0,98,-99.99,,,0.00,Acu-Link.com,2013-07-14 14:13:00,
2013-07-14 09:28:00,81.5,80.9,29.75,East,90,3.2,-999.0,98,-99.99,,,0.00,Acu-Link.com,2013-07-14 14:28:00,
2013-07-14 09:43:00,81.3,80.7,29.76,East,90,4.2,-999.0,98,-99.99,,,0.00,Acu-Link.com,2013-07-14 14:43:00,
2013-07-14 09:58:00,83.7,83.1,29.75,SE,135,3.7,-999.0,98,-99.99,,,0.00,Acu-Link.com,2013-07-14 14:58:00,
2013-07-14 10:13:00,86.4,85.8,29.75,NNE,22,3.2,-999.0,98,-99.99,,,0.00,Acu-Link.com,2013-07-14 15:13:00,
2013-07-14 10:28:00,86.7,86.1,29.74,SSE,157,1.7,-999.0,98,-99.99,,,0.00,Acu-Link.com,2013-07-14 15:28:00,
2013-07-14 10:44:00,85.5,84.9,29.76,South,180,1.7,-999.0,98,-99.99,,,0.00,Acu-Link.com,2013-07-14 15:44:00,
2013-07-14 10:59:00,85.3,84.7,29.75,ESE,112,1.7,-999.0,98,-99.99,,,0.00,Acu-Link.com,2013-07-14 15:59:00,
2013-07-14 11:14:00,84.9,84.3,29.76,SSW,202,0.0,-999.0,98,-99.99,,,0.00,Acu-Link.com,2013-07-14 16:14:00,
2013-07-14 11:29:00,85.6,85.0,29.77,NE,45,3.7,-999.0,98,-99.99,,,0.00,Acu-Link.com,2013-07-14 16:29:00,
2013-07-14 11:44:00,85.3,84.7,29.77,NNW,337,1.7,-999.0,98,-99.99,,,0.00,Acu-Link.com,2013-07-14 16:44:00,
2013-07-14 11:59:00,85.5,84.9,29.77,NNE,22,3.2,-999.0,98,-99.99,,,0.00,Acu-Link.com,2013-07-14 16:59:00,
2013-07-14 12:15:00,85.8,85.2,29.79,NE,45,0.0,-999.0,98,-99.99,,,0.00,Acu-Link.com,2013-07-14 17:15:00,
2013-07-14 12:30:00,86.9,86.3,29.78,SE,135,1.7,-999.0,98,-99.99,,,0.00,Acu-Link.com,2013-07-14 17:30:00,
2013-07-14 12:45:00,87.8,87.2,29.79,NE,45,4.7,-999.0,98,-99.99,,,0.00,Acu-Link.com,2013-07-14 17:45:00,
2013-07-14 13:00:00,87.4,86.8,29.78,SW,225,3.7,-999.0,98,-99.99,,,0.00,Acu-Link.com,2013-07-14 18:00:00,
2013-07-14 13:15:00,87.6,87.0,29.78,NE,45,2.2,-999.0,98,-99.99,,,0.00,Acu-Link.com,2013-07-14 18:15:00,
2013-07-14 13:30:00,88.0,87.4,29.76,WSW,247,0.0,-999.0,98,-99.99,,,0.00,Acu-Link.com,2013-07-14 18:30:00,
2013-07-14 13:46:00,87.4,86.8,29.76,East,90,0.0,-999.0,98,-99.99,,,0.00,Acu-Link.com,2013-07-14 18:46:00,
2013-07-14 14:01:00,87.4,86.8,29.75,ENE,67,4.2,-999.0,98,-99.99,,,0.00,Acu-Link.com,2013-07-14 19:01:00,
2013-07-14 14:16:00,88.3,87.7,29.75,SE,135,1.7,-999.0,98,-99.99,,,0.00,Acu-Link.com,2013-07-14 19:16:00,
2013-07-14 14:31:00,88.2,87.6,29.74,NE,45,3.7,-999.0,98,-99.99,,,0.00,Acu-Link.com,2013-07-14 19:31:00,
2013-07-14 14:46:00,88.5,87.9,29.74,East,90,5.3,-999.0,98,-99.99,,,0.00,Acu-Link.com,2013-07-14 19:46:00,
2013-07-14 15:01:00,87.6,87.0,29.72,ENE,67,2.7,-999.0,98,-99.99,,,0.00,Acu-Link.com,2013-07-14 20:01:00,
2013-07-14 15:16:00,87.8,87.2,29.73,SE,135,2.2,-999.0,98,-99.99,,,0.00,Acu-Link.com,2013-07-14 20:16:00,
2013-07-14 15:31:00,88.3,85.0,29.72,East,90,3.7,-999.0,90,-99.99,,,0.00,Acu-Link.com,2013-07-14 20:31:00,
2013-07-14 15:46:00,88.0,85.7,29.72,ESE,112,1.7,-999.0,93,-99.99,,,0.00,Acu-Link.com,2013-07-14 20:46:00,
2013-07-14 16:02:00,88.9,85.9,29.72,ESE,112,2.7,-999.0,91,-99.99,,,0.00,Acu-Link.com,2013-07-14 21:02:00,
2013-07-14 16:17:00,89.8,86.1,29.71,ESE,112,3.7,-999.0,89,-99.99,,,0.00,Acu-Link.com,2013-07-14 21:17:00,
2013-07-14 16:32:00,89.6,86.6,29.71,ENE,67,6.8,-999.0,91,-99.99,,,0.00,Acu-Link.com,2013-07-14 21:32:00,
2013-07-14 16:47:00,88.5,85.2,29.70,East,90,4.2,-999.0,90,-99.99,,,0.00,Acu-Link.com,2013-07-14 21:47:00,
2013-07-14 17:02:00,89.1,86.5,29.71,ENE,67,4.7,-999.0,92,-99.99,,,0.00,Acu-Link.com,2013-07-14 22:02:00,
2013-07-14 17:17:00,88.3,85.7,29.70,East,90,5.8,-999.0,92,-99.99,,,0.00,Acu-Link.com,2013-07-14 22:17:00,
2013-07-14 17:32:00,88.7,84.3,29.71,SE,135,3.7,-999.0,87,-99.99,,,0.00,Acu-Link.com,2013-07-14 22:32:00,
2013-07-14 17:47:00,82.9,77.9,29.73,South,180,2.2,-999.0,85,-99.99,,,0.00,Acu-Link.com,2013-07-14 22:47:00,
2013-07-14 18:02:00,79.7,77.2,29.73,South,180,3.2,-999.0,92,-99.99,,,0.00,Acu-Link.com,2013-07-14 23:02:00,
2013-07-14 18:17:00,78.3,77.7,29.73,SSW,202,4.2,-999.0,98,-99.99,,,0.00,Acu-Link.com,2013-07-14 23:17:00,
2013-07-14 18:33:00,77.4,76.8,29.73,SSW,202,2.2,-999.0,98,-99.99,,,0.00,Acu-Link.com,2013-07-14 23:33:00,
2013-07-14 18:48:00,75.0,74.4,29.72,West,270,2.7,-999.0,98,-99.99,,,0.00,Acu-Link.com,2013-07-14 23:48:00,
2013-07-14 19:03:00,74.3,73.7,29.71,West,270,2.2,-999.0,98,-99.99,,,0.00,Acu-Link.com,2013-07-15 00:03:00,
2013-07-14 19:18:00,72.7,72.1,29.72,West,270,2.7,-999.0,98,-99.99,,,0.01,Acu-Link.com,2013-07-15 00:18:00,
2013-07-14 19:33:00,72.0,71.4,29.73,East,90,1.1,-999.0,98,-99.99,,,0.03,Acu-Link.com,2013-07-15 00:33:00,
2013-07-14 19:48:00,71.8,71.2,29.73,West,270,2.7,-999.0,98,-99.99,,,0.03,Acu-Link.com,2013-07-15 00:48:00,
2013-07-14 20:03:00,71.8,71.2,29.72,North,0,4.2,-999.0,98,-99.99,,,0.04,Acu-Link.com,2013-07-15 01:03:00,
2013-07-14 20:19:00,71.8,71.2,29.73,East,90,2.7,-999.0,98,-99.99,,,0.04,Acu-Link.com,2013-07-15 01:19:00,
2013-07-14 20:34:00,71.2,70.6,29.73,ESE,112,1.1,-999.0,98,-99.99,,,0.05,Acu-Link.com,2013-07-15 01:34:00,
2013-07-14 20:49:00,71.1,70.5,29.74,East,90,3.2,-999.0,98,-99.99,,,0.05,Acu-Link.com,2013-07-15 01:49:00,
2013-07-14 21:04:00,71.1,70.5,29.74,SSW,202,0.0,-999.0,98,-99.99,,,0.05,Acu-Link.com,2013-07-15 02:04:00,
2013-07-14 21:19:00,70.9,70.3,29.74,North,0,0.0,-999.0,98,-99.99,,,0.05,Acu-Link.com,2013-07-15 02:19:00,
2013-07-14 21:34:00,71.2,70.6,29.74,SE,135,0.0,-999.0,98,-99.99,,,0.05,Acu-Link.com,2013-07-15 02:34:00,
2013-07-14 21:49:00,71.2,70.6,29.74,WSW,247,0.0,-999.0,98,-99.99,,,0.05,Acu-Link.com,2013-07-15 02:49:00,
2013-07-14 22:04:00,71.6,71.0,29.74,SSE,157,0.0,-999.0,98,-99.99,,,0.05,Acu-Link.com,2013-07-15 03:04:00,
2013-07-14 22:20:00,71.6,71.0,29.73,ESE,112,0.0,-999.0,98,-99.99,,,0.05,Acu-Link.com,2013-07-15 03:20:00,
2013-07-14 22:35:00,72.0,71.4,29.75,East,90,0.0,-999.0,98,-99.99,,,0.05,Acu-Link.com,2013-07-15 03:35:00,
2013-07-14 22:50:00,72.3,71.7,29.74,ESE,112,0.0,-999.0,98,-99.99,,,0.05,Acu-Link.com,2013-07-15 03:50:00,
2013-07-14 23:05:00,72.5,71.9,29.73,East,90,0.0,-999.0,98,-99.99,,,0.05,Acu-Link.com,2013-07-15 04:05:00,
2013-07-14 23:20:00,72.5,71.9,29.73,ESE,112,0.0,-999.0,98,-99.99,,,0.05,Acu-Link.com,2013-07-15 04:20:00,
2013-07-14 23:35:00,72.9,72.3,29.73,NE,45,0.0,-999.0,98,-99.99,,,0.05,Acu-Link.com,2013-07-15 04:35:00,
2013-07-14 23:50:00,72.9,72.3,29.73,East,90,1.7,-999.0,98,-99.99,,,0.05,Acu-Link.com,2013-07-15 04:50:00,